EW2649 Weather Reports


Display with metric or nautical units.
time (UTC)temp
F
wind
direction
speed
MPH
gust
MPH
rain 1hr
in
rain 24hr
in
rain mn
in
humidity
%
barometer
mb
20260904200032 72 11 2.0 10.0 0.00 0.06 0.01 56 1009.7
20260904194531 72 294 3.0 7.0 0.00 0.06 0.01 57 1009.8
20260904193037 73 348 2.0 9.0 0.00 0.06 0.01 57 1009.9
20260904191526 72 36 4.0 10.0 0.00 0.06 0.01 58 1010.1
20260904190035 72 76 6.0 11.0 0.00 0.06 0.01 59 1010.1
20260904184519 71 200 3.0 5.0 0.00 0.06 0.01 53 1010.1
20260904183014 70 76 3.0 8.0 0.00 0.06 0.01 55 1010.2
20260904181510 69 326 1.0 6.0 0.00 0.06 0.01 56 1010.3
20260904180007 69 171 1.0 5.0 0.00 0.06 0.01 58 1010.4
20260904174505 69 71 1.0 6.0 0.00 0.06 0.01 60 1010.4
20260904173102 68 49 3.0 9.0 0.00 0.06 0.01 62 1010.3
20260904171556 66 17 3.0 5.0 0.00 0.06 0.01 66 1010.3
20260904170049 65 55 1.0 4.0 0.00 0.06 0.01 78 1010.3
20260904164546 63 200 0.0 4.0 0.00 0.06 0.01 83 1010.2
20260904163041 62 127 3.0 5.0 0.00 0.06 0.01 89 1010.1
20260904161541 61 78 1.0 4.0 0.00 0.06 0.01 92 1010.0
20260904160032 61 188 0.0 2.0 0.00 0.06 0.01 92 1010.0
20260904154531 59 189 0.0 1.0 0.00 0.06 0.01 92 1010.1
20260904153029 58 188 1.0 2.0 0.00 0.06 0.01 92 1010.1
20260904151527 56 190 1.0 3.0 0.00 0.06 0.01 92 1010.1
20260904150027 55 171 2.0 4.0 0.00 0.06 0.01 92 1010.0
20260904144520 54 171 2.0 5.0 0.00 0.06 0.01 92 1009.8
20260904143015 53 180 2.0 4.0 0.00 0.06 0.01 92 1009.6
20260904141511 52 180 2.0 4.0 0.00 0.06 0.01 92 1009.5
20260904140007 52 180 2.0 4.0 0.00 0.06 0.01 92 1009.5
20260904134511 52 171 4.0 5.0 0.00 0.06 0.01 92 1009.3
20260904133002 52 169 3.0 4.0 0.00 0.06 0.01 92 1009.1
20260904131603 53 182 3.0 4.0 0.00 0.06 0.01 92 1009.0
20260904130105 53 184 2.0 4.0 0.00 0.06 0.01 92 1009.1
20260904124600 53 192 2.0 4.0 0.00 0.06 0.01 92 1008.9
20260904123051 54 188 3.0 4.0 0.00 0.06 0.01 92 1008.9
20260904121551 54 163 1.0 3.0 0.00 0.06 0.01 92 1009.0
20260904114543 55 166 0.0 4.0 0.00 0.06 0.01 92 1008.8
20260904113042 55 186 1.0 3.0 0.01 0.06 0.01 92 1008.6
20260904111540 55 192 2.0 3.0 0.01 0.06 0.01 91 1008.8
20260904110036 56 204 2.0 4.0 0.01 0.06 0.01 92 1008.7
20260904104533 56 190 1.0 2.0 0.01 0.06 0.01 92 1008.6
20260904103030 57 190 2.0 3.0 0.00 0.05 0.00 92 1008.5
20260904101531 57 281 1.0 2.0 0.00 0.05 0.00 91 1008.4
20260904100026 58 281 1.0 2.0 0.00 0.05 0.00 92 1008.4
20260904094523 58 281 0.0 1.0 0.00 0.05 0.00 92 1008.4
20260904093025 58 281 0.0 2.0 0.00 0.05 0.00 91 1008.3
20260904091522 58 279 1.0 2.0 0.00 0.05 0.00 91 1008.2
20260904090017 59 132 0.0 2.0 0.00 0.05 0.00 91 1008.2
20260904084516 59 132 1.0 4.0 0.00 0.05 0.00 91 1008.1
20260904083015 59 154 0.0 0.0 0.00 0.05 0.00 91 1008.2
20260904081513 60 155 3.0 4.0 0.00 0.05 0.00 91 1008.1
20260904080011 60 180 2.0 3.0 0.00 0.05 0.00 91 1008.1
20260904074547 60 180 1.0 4.0 0.00 0.05 0.00 91 1008.0
20260904073035 60 167 0.0 3.0 0.00 0.05 0.00 91 1008.1
20260904071529 60 167 2.0 6.0 0.00 0.05 0.00 91 1008.1
20260904070025 60 227 1.0 4.0 0.00 0.05 0.00 91 1008.0
20260904064502 60 330 1.0 3.0 0.02 0.05 0.05 91 1008.2
20260904063002 60 5 0.0 6.0 0.03 0.05 0.05 90 1008.3
20260904061501 60 306 5.0 10.0 0.04 0.05 0.05 90 1008.1
20260904054602 62 355 4.0 9.0 0.03 0.03 0.03 90 1007.9
20260904053104 63 5 1.0 5.0 0.02 0.02 0.02 90 1008.0
20260904051616 63 295 1.0 3.0 0.01 0.01 0.01 90 1008.1
20260904050058 63 181 0.0 2.0 0.00 0.00 0.00 89 1008.1
20260904044600 63 181 0.0 3.0 0.00 0.00 0.00 89 1008.1
20260904043107 63 80 0.0 4.0 0.00 0.00 0.00 88 1008.0
20260904041557 64 219 3.0 13.0 0.00 0.00 0.00 87 1007.9
20260904040057 64 215 5.0 11.0 0.00 0.00 0.00 87 1007.7
20260904034557 65 184 3.0 11.0 0.00 0.00 0.00 86 1007.5
20260904033056 65 237 7.0 12.0 0.00 0.00 0.00 85 1007.5
20260904031556 65 221 1.0 3.0 0.00 0.00 0.00 84 1007.5
20260904030106 65 94 1.0 5.0 0.00 0.00 0.00 84 1007.2
20260904024555 65 86 0.0 6.0 0.00 0.00 0.00 85 1007.2
20260904023054 65 275 5.0 15.0 0.00 0.00 0.00 86 1007.2
20260904021553 65 202 5.0 12.0 0.00 0.00 0.00 86 1007.3
20260904020052 65 208 7.0 14.0 0.00 0.00 0.00 86 1007.5
20260904014602 66 211 5.0 18.0 0.00 0.00 0.00 84 1007.7
20260904013051 67 183 5.0 13.0 0.00 0.00 0.00 81 1007.5
20260904011550 68 227 7.0 16.0 0.00 0.00 0.00 78 1007.4
20260904010050 68 209 6.0 15.0 0.00 0.00 0.00 76 1007.5
20260904004549 70 209 4.0 14.0 0.00 0.00 0.00 73 1007.6
20260904003049 71 196 4.0 15.0 0.00 0.00 0.00 70 1007.6
20260904001548 72 197 7.0 15.0 0.00 0.00 0.00 67 1007.7
20260904000048 73 334 5.0 15.0 0.00 0.00 0.00 65 1007.8
20260903234541 73 190 7.0 23.0 0.00 0.00 0.00 64 1007.7
20260903233045 73 149 7.0 18.0 0.00 0.00 0.00 63 1007.7
20260903231536 72 202 4.0 20.0 0.00 0.00 0.00 65 1007.9
20260903230044 73 229 7.0 22.0 0.00 0.00 0.00 66 1008.2
20260903224534 72 47 4.0 15.0 0.00 0.00 0.00 67 1008.4
20260903223033 72 219 3.0 14.0 0.00 0.00 0.00 67 1008.6
20260903221531 71 141 5.0 14.0 0.00 0.00 0.00 67 1008.7
20260903220035 71 184 6.0 18.0 0.00 0.00 0.00 68 1008.9
20260903214530 70 279 11.0 18.0 0.00 0.00 0.00 68 1009.2
20260903213028 71 254 15.0 22.0 0.00 0.00 0.00 67 1009.4
20260903211527 71 256 3.0 10.0 0.00 0.00 0.00 66 1009.1
20260903210033 72 246 7.0 12.0 0.00 0.00 0.00 66 1009.2
20260903204526 72 202 10.0 15.0 0.00 0.00 0.00 64 1009.4
20260903203027 73 207 5.0 14.0 0.00 0.00 0.00 63 1009.3
20260903201524 72 208 8.0 14.0 0.00 0.00 0.00 64 1009.4